NOAA 16 DEB, 41285

Orbit data source: Space-Track

NOAA 16 DEB, 41285 is space debris in SSO originally from a launch on Thu, 21 Sep 2000 UTC launched from the Air Force Western Test Range (AFWTR). Debris objects in space refer to the collection of defunct objects orbiting the Earth. Examples of debris include non-operational satellites, rocket bodies, and fragments generated from explosions, collisions, or faulty payload assembly.

Loading next visibility...
Identifier
41285, 2000-055GM
Orbit
SSO
Country
Flag of USUS
Related business
Manufacturer
Unknown
Mission
Spacecraft
Bus & Motor
Unknown
Mass
Unknown
Launch date (UTC)
2000-09-21 (25 years ago)
Launch vehicle
Unknown
Launch site
Air Force Western Test Range (AFWTR)
Object type
Payload
Rocket body
Debris
Shape & HBR
Unknown shape, 0.1 m
Radar Cross Section
Small (<0.1 m²)

Expand to show TLE details & history
Last TLE update: 1 day ago

TLE from 1 day ago
0 NOAA 16 DEB
1 41285U 00055GM  25340.64468479  .00007130  00000-0  29769-2 0  9998
2 41285  98.6761  44.4631 0051338 208.9904 150.8422 14.25747484514034
Epoch: 2025-12-06T15:28Z
TLE epoch observation values (Epoch: 2025-12-06T15:28:20.765Z)
Latitude
-0.00009°
Longitude
96.70713°
Altitude
841.163 km
Speed
7.416 km/s
True Right ascension
02h 57m 51s
True Declination
0° 00' 00"
Sunlit
Object was in full shadow at epoch
Visualization orbit readout
Latitude
Unknown
Longitude
Unknown
Altitude
Unknown
Speed
Unknown
Apparent Right ascension
Unknown
Apparent Declination
Unknown
Sunlit
N/A
Visualization observer readout
Local Sidereal Time
15:59:47
Azimuth
Unknown
Elevation
Unknown
Doppler factor
Unknown
Orbital elements
Apogee altitude
839.997 km
Perigee altitude
766.263 km
Semi-major axis
7,181.267 km
Eccentricity
0.00513
Inclination
98.6761°
RAAN
44.4631°
Arg. of periapsis
208.9904°
True anomaly
151.12723°
Mean anomaly
150.8422°
Eccentric anomaly
150.98487°
Mean motion
3.56649 °/min
Orbital period
100.94 mins
BSTAR
0.0029769
Loading maneuver chart data...
Computing Atmospheric mass density...
Loading historical data...
Loading historical data...
Loading historical data...
Loading historical data...
Loading historical data...
Loading historical data...
Loading historical data...

Documentation

Showing up to 5 results
|